Regional Weather Roundup
Issued by NWS Newport/Morehead, NC

Current Version | Previous Version | Text Only | Print | Product List | Glossary On
Versions: 1 2 3 4 5 6 7 8 9 10 11 12 13 14 15 16 17 18 19 20 21 22 23 24 25 26 27 28 29 30 31 32 33 34 35 36 37 38 39 40 41 42 43 44 45 46 47 48 49 50
000
ASUS42 KMHX 221825
RWRMHX
WEATHER ROUNDUP FOR EASTERN NORTH CAROLINA
NATIONAL WEATHER SERVICE NEWPORT/MOREHEAD CITY NC
200 PM EDT FRI SEP 22 2017

NOTE: "FAIR" INDICATES FEW OR NO CLOUDS BELOW 12,000 FEET
WITH NO SIGNIFICANT WEATHER AND/OR OBSTRUCTIONS TO VISIBILITY

NCZ015>017-031-032-045>047-102-103-221900-
NORTH COAST

CITY           SKY/WX    TMP DP  RH WIND       PRES   REMARKS
EDENTON        MOSUNNY   87  69  53 CALM      30.01F
ELIZABETH CITY MOSUNNY   86  69  56 N12       30.00F
KITTY HAWK     CLEAR     81  66  60 CALM      30.00F
MANTEO         SUNNY     83  67  59 W5        30.01F

$$

NCZ045>047-081-094-103-104-221900-
CENTRAL COAST

CITY           SKY/WX    TMP DP  RH WIND       PRES   REMARKS
FRISCO         SUNNY     84  68  58 W5        30.03F

$$

NCZ095-097-098-100-101-221900-
SOUTHERN COAST

CITY           SKY/WX    TMP DP  RH WIND       PRES   REMARKS
BEAUFORT       SUNNY     83  70  64 SW10      30.03F
CEDAR ISLAND   NOT AVBL
JACKSONVILLE   MOSUNNY   86  68  54 CALM      30.02F
PINEY ISLAND     N/A    N/A N/A N/A E8        30.02F
WILMINGTON     PTSUNNY   85  69  58 E7        30.03F


$$

NCZ011>013-027>030-043-044-078>080-089-090>093-098-221900-
COASTAL PLAIN

CITY           SKY/WX    TMP DP  RH WIND       PRES   REMARKS
AHOSKIE        SUNNY     83  68  58 CALM      30.02F
CLINTON        SUNNY     86  67  52 CALM      30.03F
ELIZABETHTOWN  NOT AVBL
GOLDSBORO      SUNNY     86  65  50 N6        30.02F
GREENVILLE     SUNNY     86  64  48 NW6       30.05S
HAVELOCK       MOSUNNY   87  68  52 NW8       30.03F
KENANSVILLE    PTSUNNY   86  68  54 N6        30.03F
KINSTON        MOSUNNY   86  63  45 CALM      30.04F
NEW BERN       SUNNY     85  66  53 VRB5      30.04F
RICHLANDS      MOSUNNY   84  69  60 N5        30.03F
ROCKY MOUNT    SUNNY     87  66  49 NE7       30.04F
WASHINGTON     MOSUNNY   87  66  49 N7        30.03S
WHITEVILLE     MOSUNNY   85  68  57 N3        30.03F

$$

AMZ130-135-150-152-154-156-158-170-250-252-270-ANZ085-086-088-633-658-670-221900-
MARINE OBSERVATIONS

STATION/POSITION TIME  TEMP    WIND        PRES    WAVE   SWELL
                       AIR SEA DIR/SP/G            HT/PER HT/PER
                 (UTC) (F)     (DEG/KT/KT) (MB)    (FT/S) (FT/S)
CHESAPEAKE LIGHT NOT AVBL
64 E VA BEACH    1750   72 71  320/  8/ 10 1016.3    9/12   8/12
DUCK             1800   80 76   10/  8/ 10 1015.6
2 E DUCK         1800      77                N/A     6/13   3/13
OREGON INLET     1800   81 78  310/  7/ 10 1016.2
13E OREGON INLT  1748      76                N/A     7/12   7/12
HATTERAS CG      1800   80 78  200/  3/  5 1016.8
DIAMOND BUOY     1750   77 78  310/  4/  6 1016.9    6/11   7/11
CAPE LOOKOUT     1800   82     170/  5/  6 1016.4
BEAUFORT LAB     1800   80 76  200/  8/  9 1016.2
30 SE NEW RVR IN 1808   80      90/  2/  4 1016.9
30 SE NEW RVR IN NOT AVBL
27 SE WRIGHTSVLE 1808   81 80   60/  4/  8 1017.0
5 SE WRIGHTSVLE  1708   78 79   70/  6/ 14 1017.4
225 S CAPE HAT   1750   79 81   70/  6/  8 1015.7    6/12   5/12
41 SE CHARLESTON 1800   79 82   40/ 10/ 12 1016.1

$$




USA.gov is the U.S. government's official web portal to all federal, state and local government web resources and services.